Regional Weather Roundup
Issued by NWS

Home | Current Version | Previous Version | Graphics & Text | Print | Product List | Glossary On
Versions: 1 2 3 4 5 6 7 8 9 10 11 12 13 14 15 16 17 18 19 20 21 22 23 24 25 26 27 28 29 30 31 32 33 34 35 36 37 38 39 40 41 42 43 44 45 46 47 48 49 50
000
ASUS43 KLOT 270800
RWRIL

ILLINOIS REGIONAL WEATHER ROUNDUP
NATIONAL WEATHER SERVICE CHICAGO/ROMEOVILLE IL
200 AM CST SAT DEC 27 2014

NOTE: "FAIR" INDICATES FEW OR NO CLOUDS BELOW 12,000 FEET WITH NO
SIGNIFICANT WEATHER AND/OR OBSTRUCTIONS TO VISIBILITY.

* THESE STATIONS ARE NOT UNDER NWS QUALITY CONTROL. THEY ALSO MAY NOT
  REPORT WEATHER SUCH AS PRECIPITATION OR FOG.

ILZ001-002-007-009-015-016-024-270900-
NORTHWEST ILLINOIS

CITY           SKY/WX    TMP DP  RH WIND       PRES   REMARKS
MOLINE         CLOUDY    49  44  83 S8        29.93S
STERLING*      CLOUDY    46  43  87 S5        29.96R
$$

ILZ003-004-008-010-011-017-018-270900-
NORTH CENTRAL ILLINOIS

CITY           SKY/WX    TMP DP  RH WIND       PRES   REMARKS
ROCKFORD       LGT RAIN  45  42  89 S8        29.98S
FREEPORT*      CLOUDY    44  42  93 S9        29.96S
$$

ILZ005-006-012>014-019>023-270900-
NORTHEAST ILLINOIS

CITY           SKY/WX    TMP DP  RH WIND       PRES   REMARKS
CHICAGO-OHARE  CLOUDY    46  41  82 S12       29.99F
CHICAGO-MIDWAY CLOUDY    48  42  80 S12       30.01S
AURORA         CLOUDY    45  40  82 S10       29.99S
WAUKEGAN       CLOUDY    46  41  82 S9        29.98F
DUPAGE AIRPORT CLOUDY    45  41  86 S8        29.99R
WHEELING       CLOUDY    46  42  86 S7        30.01S
NORTHERLY ISL    N/A     47  41  80 S13         N/A
$$

LMZ740>746-270900-
SOUTHERN LAKE MICHIGAN

STATION/POSITION SKY/WX   TEMP    WIND        PRES    VSBY  WAVE
                          AIR SEA DIR/SP/G                  HT/PER
                          (F)     (DEG/KT/KT) (MB)    (MI)  (FT/S)
WAUKEGAN HARBOR            41     170/  8/ 10   N/A
HARRISON CRIB              46     190/ 16/ 19   N/A
BURNHAM HARBOR             47     190/ 11/ 11   N/A
CALUMET HARBOR             47     180/  9/ 12 1015.4F
MICHIGAN CITY              47     160/ 16/ 19   N/A
$$

ILZ025>027-034>036-040-047-049-050-058-095>099-270900-
WEST-CENTRAL ILLINOIS

CITY           SKY/WX    TMP DP  RH WIND       PRES   REMARKS
QUINCY         CLOUDY    50  45  83 S14       29.97S
$$

ILZ028>032-037-038-041>044-048-051>054-059>061-270900-
CENTRAL ILLINOIS

CITY           SKY/WX    TMP DP  RH WIND       PRES   REMARKS
DECATUR        CLOUDY    46  44  93 S14       30.06S
PEORIA         CLOUDY    49  44  83 S13       30.00R
LINCOLN*       CLOUDY    47  45  92 S12       30.03S
SPRINGFIELD    CLOUDY    47  44  90 S14       30.03F
TAYLORVILLE    NOT AVBL
$$

ILZ033-039-045-046-055>057-062-063-270900-
EAST-CENTRAL ILLINOIS

CITY           SKY/WX    TMP DP  RH WIND       PRES   REMARKS
CHAMPAIGN      LGT RAIN  46  43  89 S15       30.06S FOG
DANVILLE*      RAIN      46  41  84 S12       30.06S
MATTOON        LGT RAIN  45  42  89 S15       30.09R
$$

ILZ079-100>102-270900-
SOUTHWEST ILLINOIS

CITY           SKY/WX    TMP DP  RH WIND       PRES   REMARKS
ALTON          CLOUDY    46  45  95 S9        30.07R
BELLEVILLE     MOCLDY    46  46 100 S9        30.07S
CAHOKIA*       CLOUDY    48  46  93 S6        30.07R
$$

ILZ064>066-069>071-074>076-080>082-084>086-088>090-092>094-270900-
SOUTH-CENTRAL ILLINOIS

CITY           SKY/WX    TMP DP  RH WIND       PRES   REMARKS
CARBONDALE     LGT RAIN  46  43  89 S7        30.12R FOG
MT. VERNON     CLOUDY    46  41  81 S8        30.12R
$$

ILZ067-068-072-073-078-083-087-091-270900-
SOUTHEAST ILLINOIS

CITY           SKY/WX    TMP DP  RH WIND       PRES   REMARKS
LAWRENCEVILLE  LGT RAIN  46  40  79 S5        30.15R
CARMI*         CLOUDY    48  44  84 S9        30.13R
$$

ABBREVIATIONS USED IN REMARKS
   TC - TEMPERATURE IN CELSIUS
  WCI - WIND CHILL INDEX
   HX - HEAT INDEX
  VSB - VISIBILITY
$$




USA.gov is the U.S. government's official web portal to all federal, state and local government web resources and services.